Weather in Macas

Ecuador     2°18′44″S   78°06′32″W
В апреле 2022 года жителям России запретили посещать сайт meteo.paraplan.net по решению Генеральной прокуратуры. Аудитория сайта уменьшилась в 10 раз. Владельцы сайта не видят смысла в поддержке погодного сервера в таких условиях. Сайт будет закрыт в октябре.
temp.,
°C
wind,
m/s
gust,
m/s
humid.,
%
clouds,
%
prec.,
mm/h
press.,
hPa
HPBL,
m
4 october, tue
tue401:00+15wsw1198100 0.0 101520
04:00+14wsw1196100 0.0 101418
07:00+15wsw1191100 0.0 101647
10:00+26ne1148100 0.0 10151393
13:00+28ne2240100 0.0 10102450
16:00+25ese235795 0.3 1008880
19:00+18wnw009377 0.6 101214
22:00+17wsw119410 0.0 101414
5 october, wed
wed501:00+16wsw119452 0.0 101221
04:00+15wsw1191100 0.0 101219
07:00+17wsw1183100 0.0 101442
10:00+27ne114998 0.0 10131340
13:00+29ene2239100 0.1 10082622
16:00+25se125992 0.0 1007471
19:00+19w1187100 0.4 101024
22:00+17wsw1193100 0.4 101325
6 october, thu
thu601:00+17wsw119165 0.4 101126
04:00+17wsw119032 0.0 101121
07:00+18wsw118718 0.4 101351
10:00+23ne127824 1.8 1013480
13:00+24ese117812 5.6 1010472
16:00+25ese016779 1.7 1007759
19:00+18ssw019768 4.6 101118
22:00+17wsw119871 2.1 101326
7 october, fri
fri701:00+16wsw119815 4.3 101225
04:00+15wsw119798 1.4 101128
07:00+17sw1194100 1.6 101338
10:00+23ene128094 2.2 1014417
13:00+23e1282100 5.5 1012394
16:00+22w128888 1.9 1008152
19:00+18w1195100 2.1 101013
22:00+17ssw1194100 0.1 101221
8 october, sat
sat801:00+17wsw1192100 0.1 101130
04:00+17w1187100 0.0 101023
07:00+19sw1180100 0.1 101240
10:00+27e1146100 0.0 10121446
13:00+27ene2249100 0.1 10091981
16:00+21ssw1192100 2.4 100772
19:00+18sw1197100 3.9 101015
22:00+17s1198100 0.6 101219